Regional Weather Roundup
Issued by NWS Northern Indiana

Home | Current Version | Previous Version | Text Only | Print | Product List | Glossary Off
Versions: 1 2 3 4 5 6 7 8 9 10 11 12 13 14 15 16 17 18 19 20 21 22 23 24 25 26 27 28 29 30 31 32 33 34 35 36 37 38 39 40 41 42 43 44 45 46 47 48 49 50

000
ASUS43 KIWX 291710
RWRIWX

KIWX WEATHER ROUNDUP
NATIONAL WEATHER SERVICE NORTHERN INDIANA
100 PM EDT WED JUL 29 2015

NOTE: "FAIR" INDICATES FEW OR NO CLOUDS BELOW 12,000 FEET WITH NO
SIGNIFICANT WEATHER AND/OR OBSTRUCTIONS TO VISIBILITY.

* THESE STATIONS ARE NOT UNDER NWS QUALITY CONTROL. THEY ALSO MAY NOT
  REPORT WEATHER SUCH AS PRECIPITATION OR FOG.

INZ001>027-291800-
NORTHERN INDIANA

CITY           SKY/WX    TMP DP  RH WIND       PRES   REMARKS
GARY*          CLOUDY    81  73  78 N13       29.99R
VALPARAISO     PTSUNNY   84  73  69 N8        29.99R
MICHIGAN CITY* CLOUDY    79  70  73 NW5       29.99S
LAPORTE*       CLOUDY    82  74  77 NW10      29.99S
KNOX*          PTSUNNY   81  73  78 NW8       29.97S
SOUTH BEND     CLOUDY    83  73  72 NW12      29.98R
ELKHART*       PTSUNNY   84  73  70 NW10      29.97S
GOSHEN         CLOUDY    83  74  74 W7        29.96S
MONTICELLO*    CLOUDY    82  75  78 W7        29.98S
LOGANSPORT*    CLOUDY    81  68  65 W6        29.99S
ROCHESTER*     CLOUDY    86  77  74 NW8       29.98S HX  97
WARSAW*        PTSUNNY   82  73  74 NW6       29.97S
ANGOLA*        PTSUNNY   90  75  62 W7        29.96R HX 100
FORT WAYNE     LGT RAIN  84  75  74 W10       29.96F
HUNTINGTON*    PTSUNNY   85  75  71 W7        29.96F
PERU/GRISSOM   CLOUDY    84  73  71 W10       29.97S
MARION*        PTSUNNY   83  74  73 NW7       29.98F

$$
INZ028>050-291800-
CENTRAL INDIANA

CITY           SKY/WX    TMP DP  RH WIND       PRES   REMARKS
LAFAYETTE      CLOUDY    82  75  79 W5        29.98S
KOKOMO*        CLOUDY    84  73  70 NW12G17   29.98S
MUNCIE*        PTSUNNY   86  73  65 W12       29.97S
INDIANAPOLIS   PTSUNNY   89  71  55 W5        29.97F HX  95

$$
MIZ043>046-050>051-056>058-064>065-071>073-077>080-291800-
SOUTHWEST LOWER MICHIGAN

CITY           SKY/WX    TMP DP  RH WIND       PRES   REMARKS
BATTLE CREEK   CLOUDY    84  73  69 W6        29.95S
BENTON HARBOR  CLOUDY    79  72  79 NW7       29.97S
COLDWATER*     PTSUNNY   84  73  68 W8        29.95S
HILLSDALE*     PTSUNNY   86  76  71 SW8       29.96S HX  96
HOLLAND        CLOUDY    81  70  69 NW7       29.95F
GRAND RAPIDS   CLOUDY    81  72  74 W12       29.94R
KALAMAZOO      CLOUDY    82  72  71 W10       29.95S
STURGIS*       PTSUNNY   82  75  78 W7        29.95F
THREE RIVERS*  PTSUNNY   83  73  70 W8        29.95S

$$
OHZ001>008-015>018-024>025-291800-
NORTHWEST OHIO

CITY           SKY/WX    TMP DP  RH WIND       PRES   REMARKS
WAUSEON*       PTSUNNY   88  75  66 SW8       29.94F HX  97
DEFIANCE       PTSUNNY   89  73  59 SW6       29.94F HX  97
FINDLAY        PTSUNNY   89  73  59 S8        29.94F HX  97
TOLEDO EXPRESS MOSUNNY   88  74  63 VRB5      29.93F HX  96
TOLEDO METCALF MOSUNNY   89  71  55 S7        29.94F HX  95
LIMA           PTSUNNY   87  71  58 S6        29.96F

$$
AND FOR LAKE MICHIGAN COASTAL AND OPEN LAKE BUOY OBSERVATIONS

STATION/POSITION TEMP    WIND        PRES    VSBY  WAVE
                 AIR SEA DIR/SP/G                  HT/PER
                 (F)     (DEG/KT/KT) (MB)    (MI)  (FT/S)
CALUMET HARBOR    80      20/  6/ 10   N/A
MICHIGAN CITY     75     240/ 10/ 11   N/A
BURNS HARBOR      76     310/  7/  9 1015.6R
SAINT JOSEPH      79     210/  4/  5 1016.3R
4 MI NW BRIDGMAN  75 75  320/  6/  8   N/A           1/ 3
MICHIGAN CITY     76 75  320/ 10/ 12   N/A           1

$$
&&


USA.gov is the U.S. government's official web portal to all federal, state and local government web resources and services.